#datetime,building,power
2022-11-25T00:00:00,axn,26.88
2022-11-25T00:01:00,axn,26.79
2022-11-25T00:02:00,axn,26.76
2022-11-25T00:03:00,axn,26.82
2022-11-25T00:04:00,axn,27.20
2022-11-25T00:05:00,axn,26.90
2022-11-25T00:06:00,axn,26.59
2022-11-25T00:07:00,axn,26.50
2022-11-25T00:08:00,axn,26.57
2022-11-25T00:09:00,axn,26.62
2022-11-25T00:10:00,axn,26.55
2022-11-25T00:11:00,axn,26.31
2022-11-25T00:12:00,axn,26.28
2022-11-25T00:13:00,axn,26.38
2022-11-25T00:14:00,axn,26.48
2022-11-25T00:15:00,axn,26.30
2022-11-25T00:16:00,axn,26.15
2022-11-25T00:17:00,axn,26.22
2022-11-25T00:18:00,axn,26.37
2022-11-25T00:19:00,axn,26.31
2022-11-25T00:20:00,axn,26.32
2022-11-25T00:21:00,axn,26.29
2022-11-25T00:22:00,axn,26.14
2022-11-25T00:23:00,axn,26.14
2022-11-25T00:24:00,axn,26.49
2022-11-25T00:25:00,axn,25.99
2022-11-25T00:26:00,axn,26.05
2022-11-25T00:27:00,axn,26.05
2022-11-25T00:28:00,axn,26.21
2022-11-25T00:29:00,axn,26.24
2022-11-25T00:30:00,axn,26.34
2022-11-25T00:31:00,axn,26.22
2022-11-25T00:32:00,axn,26.28
2022-11-25T00:33:00,axn,26.32
2022-11-25T00:34:00,axn,26.16
2022-11-25T00:35:00,axn,26.33
2022-11-25T00:36:00,axn,26.24
2022-11-25T00:37:00,axn,26.16
2022-11-25T00:38:00,axn,26.44
2022-11-25T00:39:00,axn,26.44
2022-11-25T00:40:00,axn,26.32
2022-11-25T00:41:00,axn,26.65
2022-11-25T00:42:00,axn,26.30
2022-11-25T00:43:00,axn,26.35
2022-11-25T00:44:00,axn,26.48
2022-11-25T00:45:00,axn,26.39
2022-11-25T00:46:00,axn,26.24
2022-11-25T00:47:00,axn,26.29
2022-11-25T00:48:00,axn,26.26
2022-11-25T00:49:00,axn,26.42
2022-11-25T00:50:00,axn,26.36
2022-11-25T00:51:00,axn,26.22
2022-11-25T00:52:00,axn,26.09
2022-11-25T00:53:00,axn,26.12
2022-11-25T00:54:00,axn,26.17
2022-11-25T00:55:00,axn,26.12
2022-11-25T00:56:00,axn,26.25
2022-11-25T00:57:00,axn,26.65
2022-11-25T00:58:00,axn,26.19
2022-11-25T00:59:00,axn,26.14
2022-11-25T01:00:00,axn,25.88
2022-11-25T01:01:00,axn,26.03
2022-11-25T01:02:00,axn,25.85
2022-11-25T01:03:00,axn,25.69
2022-11-25T01:04:00,axn,25.78
2022-11-25T01:05:00,axn,25.79
2022-11-25T01:06:00,axn,25.76
2022-11-25T01:07:00,axn,28.00
2022-11-25T01:08:00,axn,28.66
2022-11-25T01:09:00,axn,29.50
2022-11-25T01:10:00,axn,28.66
2022-11-25T01:11:00,axn,26.08
2022-11-25T01:12:00,axn,26.06
2022-11-25T01:13:00,axn,26.37
2022-11-25T01:14:00,axn,25.94
2022-11-25T01:15:00,axn,25.92
2022-11-25T01:16:00,axn,25.99
2022-11-25T01:17:00,axn,26.08
2022-11-25T01:18:00,axn,26.04
2022-11-25T01:19:00,axn,25.98
2022-11-25T01:20:00,axn,26.20
2022-11-25T01:21:00,axn,25.97
2022-11-25T01:22:00,axn,25.81
2022-11-25T01:23:00,axn,25.82
2022-11-25T01:24:00,axn,25.86
2022-11-25T01:25:00,axn,25.88
2022-11-25T01:26:00,axn,25.82
2022-11-25T01:27:00,axn,25.82
2022-11-25T01:28:00,axn,25.87
2022-11-25T01:29:00,axn,26.04
2022-11-25T01:30:00,axn,26.12
2022-11-25T01:31:00,axn,26.12
2022-11-25T01:32:00,axn,26.07
2022-11-25T01:33:00,axn,25.97
2022-11-25T01:34:00,axn,26.24
2022-11-25T01:35:00,axn,25.84
2022-11-25T01:36:00,axn,26.09
2022-11-25T01:37:00,axn,25.84
2022-11-25T01:38:00,axn,25.97
2022-11-25T01:39:00,axn,26.07
2022-11-25T01:40:00,axn,25.99
2022-11-25T01:41:00,axn,26.24
2022-11-25T01:42:00,axn,26.39
2022-11-25T01:43:00,axn,26.15
2022-11-25T01:44:00,axn,26.00
2022-11-25T01:45:00,axn,26.25
2022-11-25T01:46:00,axn,26.14
2022-11-25T01:47:00,axn,26.20
2022-11-25T01:48:00,axn,26.30
2022-11-25T01:49:00,axn,26.23
2022-11-25T01:50:00,axn,26.21
2022-11-25T01:51:00,axn,26.64
2022-11-25T01:52:00,axn,26.17
2022-11-25T01:53:00,axn,26.12
2022-11-25T01:54:00,axn,26.17
2022-11-25T01:55:00,axn,26.21
2022-11-25T01:56:00,axn,26.18
2022-11-25T01:57:00,axn,26.19
2022-11-25T01:58:00,axn,25.92
2022-11-25T01:59:00,axn,25.87
2022-11-25T02:00:00,axn,25.86
2022-11-25T02:01:00,axn,25.83
2022-11-25T02:02:00,axn,25.69
2022-11-25T02:03:00,axn,25.73
2022-11-25T02:04:00,axn,25.66
2022-11-25T02:05:00,axn,25.64
2022-11-25T02:06:00,axn,25.56
2022-11-25T02:07:00,axn,25.57
2022-11-25T02:08:00,axn,25.76
2022-11-25T02:09:00,axn,25.71
2022-11-25T02:10:00,axn,25.89
2022-11-25T02:11:00,axn,25.73
2022-11-25T02:12:00,axn,25.46
2022-11-25T02:13:00,axn,25.36
2022-11-25T02:14:00,axn,25.19
2022-11-25T02:15:00,axn,25.26
2022-11-25T02:16:00,axn,25.14
2022-11-25T02:17:00,axn,25.73
2022-11-25T02:18:00,axn,25.80
2022-11-25T02:19:00,axn,26.15
2022-11-25T02:20:00,axn,26.14
2022-11-25T02:21:00,axn,26.00
2022-11-25T02:22:00,axn,25.70
2022-11-25T02:23:00,axn,25.79
2022-11-25T02:24:00,axn,25.74
2022-11-25T02:25:00,axn,25.86
2022-11-25T02:26:00,axn,26.00
2022-11-25T02:27:00,axn,26.34
2022-11-25T02:28:00,axn,26.28
2022-11-25T02:29:00,axn,26.37
2022-11-25T02:30:00,axn,36.96
2022-11-25T02:31:00,axn,36.65
2022-11-25T02:32:00,axn,36.47
2022-11-25T02:33:00,axn,36.42
2022-11-25T02:34:00,axn,36.45
2022-11-25T02:35:00,axn,26.38
2022-11-25T02:36:00,axn,26.33
2022-11-25T02:37:00,axn,26.41
2022-11-25T02:38:00,axn,26.42
2022-11-25T02:39:00,axn,26.41
2022-11-25T02:40:00,axn,26.32
2022-11-25T02:41:00,axn,26.55
2022-11-25T02:42:00,axn,26.45
2022-11-25T02:43:00,axn,26.75
2022-11-25T02:44:00,axn,26.71
2022-11-25T02:45:00,axn,26.03
2022-11-25T02:46:00,axn,26.13
2022-11-25T02:47:00,axn,26.19
2022-11-25T02:48:00,axn,25.91
2022-11-25T02:49:00,axn,26.01
2022-11-25T02:50:00,axn,25.99
2022-11-25T02:51:00,axn,26.35
2022-11-25T02:52:00,axn,26.29
2022-11-25T02:53:00,axn,26.45
2022-11-25T02:54:00,axn,26.04
2022-11-25T02:55:00,axn,26.07
2022-11-25T02:56:00,axn,26.01
2022-11-25T02:57:00,axn,26.21
2022-11-25T02:58:00,axn,25.90
2022-11-25T02:59:00,axn,25.96
2022-11-25T03:00:00,axn,25.95
2022-11-25T03:01:00,axn,25.99
2022-11-25T03:02:00,axn,25.77
2022-11-25T03:03:00,axn,25.84
2022-11-25T03:04:00,axn,25.85
2022-11-25T03:05:00,axn,25.92
2022-11-25T03:06:00,axn,26.02
2022-11-25T03:07:00,axn,25.98
2022-11-25T03:08:00,axn,26.04
2022-11-25T03:09:00,axn,26.17
2022-11-25T03:10:00,axn,26.05
2022-11-25T03:11:00,axn,42.34
2022-11-25T03:12:00,axn,25.99
2022-11-25T03:13:00,axn,26.28
2022-11-25T03:14:00,axn,25.88
2022-11-25T03:15:00,axn,25.79
2022-11-25T03:16:00,axn,25.78
2022-11-25T03:17:00,axn,25.75
2022-11-25T03:18:00,axn,25.88
2022-11-25T03:19:00,axn,25.89
2022-11-25T03:20:00,axn,25.87
2022-11-25T03:21:00,axn,25.94
2022-11-25T03:22:00,axn,25.97
2022-11-25T03:23:00,axn,25.65
2022-11-25T03:24:00,axn,25.55
2022-11-25T03:25:00,axn,28.50
2022-11-25T03:26:00,axn,28.44
2022-11-25T03:27:00,axn,25.56
2022-11-25T03:28:00,axn,25.76
2022-11-25T03:29:00,axn,25.63
2022-11-25T03:30:00,axn,31.53
2022-11-25T03:31:00,axn,31.40
2022-11-25T03:32:00,axn,31.40
2022-11-25T03:33:00,axn,25.43
2022-11-25T03:34:00,axn,25.39
2022-11-25T03:35:00,axn,25.42
2022-11-25T03:36:00,axn,25.43
2022-11-25T03:37:00,axn,25.47
2022-11-25T03:38:00,axn,25.70
2022-11-25T03:39:00,axn,25.73
2022-11-25T03:40:00,axn,25.72
2022-11-25T03:41:00,axn,25.67
2022-11-25T03:42:00,axn,25.47
2022-11-25T03:43:00,axn,25.42
2022-11-25T03:44:00,axn,25.94
2022-11-25T03:45:00,axn,25.57
2022-11-25T03:46:00,axn,25.61
2022-11-25T03:47:00,axn,25.68
2022-11-25T03:48:00,axn,25.79
2022-11-25T03:49:00,axn,25.63
2022-11-25T03:50:00,axn,25.51
2022-11-25T03:51:00,axn,25.42
2022-11-25T03:52:00,axn,25.30
2022-11-25T03:53:00,axn,25.38
2022-11-25T03:54:00,axn,25.39
2022-11-25T03:55:00,axn,25.38
2022-11-25T03:56:00,axn,25.30
2022-11-25T03:57:00,axn,25.64
2022-11-25T03:58:00,axn,25.42
2022-11-25T03:59:00,axn,25.49
2022-11-25T04:00:00,axn,25.31
2022-11-25T04:01:00,axn,25.20
2022-11-25T04:02:00,axn,25.21
2022-11-25T04:03:00,axn,25.27
2022-11-25T04:04:00,axn,25.29
2022-11-25T04:05:00,axn,25.23
2022-11-25T04:06:00,axn,25.26
2022-11-25T04:07:00,axn,25.30
2022-11-25T04:08:00,axn,25.47
2022-11-25T04:09:00,axn,26.00
2022-11-25T04:10:00,axn,40.03
2022-11-25T04:11:00,axn,39.97
2022-11-25T04:12:00,axn,39.61
2022-11-25T04:13:00,axn,39.50
2022-11-25T04:14:00,axn,39.38
2022-11-25T04:15:00,axn,28.36
2022-11-25T04:16:00,axn,28.46
2022-11-25T04:17:00,axn,28.82
2022-11-25T04:18:00,axn,25.78
2022-11-25T04:19:00,axn,25.79
2022-11-25T04:20:00,axn,25.71
2022-11-25T04:21:00,axn,25.61
2022-11-25T04:22:00,axn,25.43
2022-11-25T04:23:00,axn,25.54
2022-11-25T04:24:00,axn,25.57
2022-11-25T04:25:00,axn,25.45
2022-11-25T04:26:00,axn,25.25
2022-11-25T04:27:00,axn,25.62
2022-11-25T04:28:00,axn,25.22
2022-11-25T04:29:00,axn,25.33
2022-11-25T04:30:00,axn,25.20
2022-11-25T04:31:00,axn,25.26
2022-11-25T04:32:00,axn,25.07
2022-11-25T04:33:00,axn,25.16
2022-11-25T04:34:00,axn,25.18
2022-11-25T04:35:00,axn,25.11
2022-11-25T04:36:00,axn,25.16
2022-11-25T04:37:00,axn,25.20
2022-11-25T04:38:00,axn,24.91
2022-11-25T04:39:00,axn,25.15
2022-11-25T04:40:00,axn,25.14
2022-11-25T04:41:00,axn,25.12
2022-11-25T04:42:00,axn,25.10
2022-11-25T04:43:00,axn,25.03
2022-11-25T04:44:00,axn,24.98
2022-11-25T04:45:00,axn,24.96
2022-11-25T04:46:00,axn,24.89
2022-11-25T04:47:00,axn,25.05
2022-11-25T04:48:00,axn,25.14
2022-11-25T04:49:00,axn,25.11
2022-11-25T04:50:00,axn,25.17
2022-11-25T04:51:00,axn,25.14
2022-11-25T04:52:00,axn,25.10
2022-11-25T04:53:00,axn,25.07
2022-11-25T04:54:00,axn,25.30
2022-11-25T04:55:00,axn,25.28
2022-11-25T04:56:00,axn,25.31
2022-11-25T04:57:00,axn,25.59
2022-11-25T04:58:00,axn,25.64
2022-11-25T04:59:00,axn,26.64
2022-11-25T05:00:00,axn,26.16
2022-11-25T05:01:00,axn,26.08
2022-11-25T05:02:00,axn,26.04
2022-11-25T05:03:00,axn,25.93
2022-11-25T05:04:00,axn,26.09
2022-11-25T05:05:00,axn,26.07
2022-11-25T05:06:00,axn,26.16
2022-11-25T05:07:00,axn,25.76
2022-11-25T05:08:00,axn,25.92
2022-11-25T05:09:00,axn,25.76
2022-11-25T05:10:00,axn,25.63
2022-11-25T05:11:00,axn,25.50
2022-11-25T05:12:00,axn,25.58
2022-11-25T05:13:00,axn,25.63
2022-11-25T05:14:00,axn,25.55
2022-11-25T05:15:00,axn,25.42
2022-11-25T05:16:00,axn,25.59
2022-11-25T05:17:00,axn,25.48
2022-11-25T05:18:00,axn,25.60
2022-11-25T05:19:00,axn,25.95
2022-11-25T05:20:00,axn,25.81
2022-11-25T05:21:00,axn,25.83
2022-11-25T05:22:00,axn,25.48
2022-11-25T05:23:00,axn,25.40
2022-11-25T05:24:00,axn,25.50
2022-11-25T05:25:00,axn,25.61
2022-11-25T05:26:00,axn,25.45
2022-11-25T05:27:00,axn,25.28
2022-11-25T05:28:00,axn,25.43
2022-11-25T05:29:00,axn,25.42
2022-11-25T05:30:00,axn,25.45
2022-11-25T05:31:00,axn,25.56
2022-11-25T05:32:00,axn,25.35
2022-11-25T05:33:00,axn,25.41
2022-11-25T05:34:00,axn,25.56
2022-11-25T05:35:00,axn,25.36
2022-11-25T05:36:00,axn,25.38
2022-11-25T05:37:00,axn,38.28
2022-11-25T05:38:00,axn,25.35
2022-11-25T05:39:00,axn,25.57
2022-11-25T05:40:00,axn,25.45
2022-11-25T05:41:00,axn,25.43
2022-11-25T05:42:00,axn,25.31
2022-11-25T05:43:00,axn,25.41
2022-11-25T05:44:00,axn,26.26
2022-11-25T05:45:00,axn,25.47
2022-11-25T05:46:00,axn,25.67
2022-11-25T05:47:00,axn,25.15
2022-11-25T05:48:00,axn,25.13
2022-11-25T05:49:00,axn,25.27
2022-11-25T05:50:00,axn,25.04
2022-11-25T05:51:00,axn,25.32
2022-11-25T05:52:00,axn,25.13
2022-11-25T05:53:00,axn,24.99
2022-11-25T05:54:00,axn,25.16
2022-11-25T05:55:00,axn,25.14
2022-11-25T05:56:00,axn,25.33
2022-11-25T05:57:00,axn,25.34
2022-11-25T05:58:00,axn,25.36
2022-11-25T05:59:00,axn,25.36
2022-11-25T06:00:00,axn,25.39
2022-11-25T06:01:00,axn,25.68
2022-11-25T06:02:00,axn,25.77
2022-11-25T06:03:00,axn,25.32
2022-11-25T06:04:00,axn,25.34
2022-11-25T06:05:00,axn,25.32
2022-11-25T06:06:00,axn,25.24
2022-11-25T06:07:00,axn,25.18
2022-11-25T06:08:00,axn,25.35
2022-11-25T06:09:00,axn,25.45
2022-11-25T06:10:00,axn,35.85
2022-11-25T06:11:00,axn,36.06
2022-11-25T06:12:00,axn,36.07
2022-11-25T06:13:00,axn,35.85
2022-11-25T06:14:00,axn,27.82
2022-11-25T06:15:00,axn,25.86
2022-11-25T06:16:00,axn,26.10
2022-11-25T06:17:00,axn,25.72
2022-11-25T06:18:00,axn,25.65
2022-11-25T06:19:00,axn,25.65
2022-11-25T06:20:00,axn,25.79
2022-11-25T06:21:00,axn,25.68
2022-11-25T06:22:00,axn,25.53
2022-11-25T06:23:00,axn,25.40
2022-11-25T06:24:00,axn,25.72
2022-11-25T06:25:00,axn,25.31
2022-11-25T06:26:00,axn,25.29
2022-11-25T06:27:00,axn,25.70
2022-11-25T06:28:00,axn,28.33
2022-11-25T06:29:00,axn,28.13
2022-11-25T06:30:00,axn,25.32
2022-11-25T06:31:00,axn,25.31
2022-11-25T06:32:00,axn,25.26
2022-11-25T06:33:00,axn,25.27
2022-11-25T06:34:00,axn,25.30
2022-11-25T06:35:00,axn,25.33
2022-11-25T06:36:00,axn,25.42
2022-11-25T06:37:00,axn,25.36
2022-11-25T06:38:00,axn,25.29
2022-11-25T06:39:00,axn,25.27
2022-11-25T06:40:00,axn,25.30
2022-11-25T06:41:00,axn,25.27
2022-11-25T06:42:00,axn,25.20
2022-11-25T06:43:00,axn,25.26
2022-11-25T06:44:00,axn,25.18
2022-11-25T06:45:00,axn,25.15
2022-11-25T06:46:00,axn,25.27
2022-11-25T06:47:00,axn,25.37
2022-11-25T06:48:00,axn,25.40
2022-11-25T06:49:00,axn,25.34
2022-11-25T06:50:00,axn,25.30
2022-11-25T06:51:00,axn,25.28
2022-11-25T06:52:00,axn,25.43
2022-11-25T06:53:00,axn,25.32
2022-11-25T06:54:00,axn,25.48
2022-11-25T06:55:00,axn,25.20
2022-11-25T06:56:00,axn,25.20
2022-11-25T06:57:00,axn,25.20
2022-11-25T06:58:00,axn,25.31
2022-11-25T06:59:00,axn,25.18
2022-11-25T07:00:00,axn,25.18
2022-11-25T07:01:00,axn,25.04
2022-11-25T07:02:00,axn,25.27
2022-11-25T07:03:00,axn,24.99
2022-11-25T07:04:00,axn,25.23
2022-11-25T07:05:00,axn,25.11
2022-11-25T07:06:00,axn,24.86
2022-11-25T07:07:00,axn,24.71
2022-11-25T07:08:00,axn,24.67
2022-11-25T07:09:00,axn,24.74
2022-11-25T07:10:00,axn,24.81
2022-11-25T07:11:00,axn,24.56
2022-11-25T07:12:00,axn,24.71
2022-11-25T07:13:00,axn,24.60
2022-11-25T07:14:00,axn,24.76
2022-11-25T07:15:00,axn,24.59
2022-11-25T07:16:00,axn,24.74
2022-11-25T07:17:00,axn,24.58
2022-11-25T07:18:00,axn,24.89
2022-11-25T07:19:00,axn,24.53
2022-11-25T07:20:00,axn,25.15
2022-11-25T07:21:00,axn,24.70
2022-11-25T07:22:00,axn,32.39
2022-11-25T07:23:00,axn,31.83
2022-11-25T07:24:00,axn,31.93
2022-11-25T07:25:00,axn,24.53
2022-11-25T07:26:00,axn,24.78
2022-11-25T07:27:00,axn,25.27
2022-11-25T07:28:00,axn,24.74
2022-11-25T07:29:00,axn,24.73
2022-11-25T07:30:00,axn,24.73
2022-11-25T07:31:00,axn,24.70
2022-11-25T07:32:00,axn,24.84
2022-11-25T07:33:00,axn,24.82
2022-11-25T07:34:00,axn,24.63
2022-11-25T07:35:00,axn,24.51
2022-11-25T07:36:00,axn,24.56
2022-11-25T07:37:00,axn,24.66
2022-11-25T07:38:00,axn,24.82
2022-11-25T07:39:00,axn,24.73
2022-11-25T07:40:00,axn,24.66
2022-11-25T07:41:00,axn,24.66
2022-11-25T07:42:00,axn,24.69
2022-11-25T07:43:00,axn,24.51
2022-11-25T07:44:00,axn,24.25
2022-11-25T07:45:00,axn,24.69
2022-11-25T07:46:00,axn,24.20
2022-11-25T07:47:00,axn,24.30
2022-11-25T07:48:00,axn,24.12
2022-11-25T07:49:00,axn,24.31
2022-11-25T07:50:00,axn,24.21
2022-11-25T07:51:00,axn,24.33
2022-11-25T07:52:00,axn,24.12
2022-11-25T07:53:00,axn,24.10
2022-11-25T07:54:00,axn,24.40
2022-11-25T07:55:00,axn,24.06
2022-11-25T07:56:00,axn,23.93
2022-11-25T07:57:00,axn,23.99
2022-11-25T07:58:00,axn,23.99
2022-11-25T07:59:00,axn,24.15
2022-11-25T08:00:00,axn,24.06
2022-11-25T08:01:00,axn,24.41
2022-11-25T08:02:00,axn,24.34
2022-11-25T08:03:00,axn,24.45
2022-11-25T08:04:00,axn,24.07
2022-11-25T08:05:00,axn,24.18
2022-11-25T08:06:00,axn,24.35
2022-11-25T08:07:00,axn,24.40
2022-11-25T08:08:00,axn,24.41
2022-11-25T08:09:00,axn,24.35
2022-11-25T08:10:00,axn,24.09
2022-11-25T08:11:00,axn,24.26
2022-11-25T08:12:00,axn,24.20
2022-11-25T08:13:00,axn,24.22
2022-11-25T08:14:00,axn,24.05
2022-11-25T08:15:00,axn,24.12
2022-11-25T08:16:00,axn,23.97
2022-11-25T08:17:00,axn,23.88
2022-11-25T08:18:00,axn,24.00
2022-11-25T08:19:00,axn,24.16
2022-11-25T08:20:00,axn,23.85
2022-11-25T08:21:00,axn,24.24
2022-11-25T08:22:00,axn,24.32
2022-11-25T08:23:00,axn,24.60
2022-11-25T08:24:00,axn,23.99
2022-11-25T08:25:00,axn,23.79
2022-11-25T08:26:00,axn,23.86
2022-11-25T08:27:00,axn,23.91
2022-11-25T08:28:00,axn,23.99
2022-11-25T08:29:00,axn,24.02
2022-11-25T08:30:00,axn,24.00
2022-11-25T08:31:00,axn,23.97
2022-11-25T08:32:00,axn,23.99
2022-11-25T08:33:00,axn,24.05
2022-11-25T08:34:00,axn,24.03
2022-11-25T08:35:00,axn,24.17
2022-11-25T08:36:00,axn,23.89
2022-11-25T08:37:00,axn,23.87
2022-11-25T08:38:00,axn,23.87
2022-11-25T08:39:00,axn,23.89
2022-11-25T08:40:00,axn,23.83
2022-11-25T08:41:00,axn,23.78
2022-11-25T08:42:00,axn,23.75
2022-11-25T08:43:00,axn,23.68
2022-11-25T08:44:00,axn,23.51
2022-11-25T08:45:00,axn,23.67
2022-11-25T08:46:00,axn,23.77
2022-11-25T08:47:00,axn,23.89
2022-11-25T08:48:00,axn,23.69
2022-11-25T08:49:00,axn,23.62
2022-11-25T08:50:00,axn,23.74
2022-11-25T08:51:00,axn,23.70
2022-11-25T08:52:00,axn,24.11
2022-11-25T08:53:00,axn,24.21
2022-11-25T08:54:00,axn,23.82
2022-11-25T08:55:00,axn,23.89
2022-11-25T08:56:00,axn,24.26
2022-11-25T08:57:00,axn,23.93
2022-11-25T08:58:00,axn,23.81
2022-11-25T08:59:00,axn,23.77
2022-11-25T09:00:00,axn,23.82
2022-11-25T09:01:00,axn,23.84
2022-11-25T09:02:00,axn,24.13
2022-11-25T09:03:00,axn,24.17
2022-11-25T09:04:00,axn,24.18
2022-11-25T09:05:00,axn,23.87
2022-11-25T09:06:00,axn,23.93
2022-11-25T09:07:00,axn,23.94
2022-11-25T09:08:00,axn,23.98
2022-11-25T09:09:00,axn,23.91
2022-11-25T09:10:00,axn,24.07
2022-11-25T09:11:00,axn,23.86
2022-11-25T09:12:00,axn,23.87
2022-11-25T09:13:00,axn,24.67
2022-11-25T09:14:00,axn,24.17
2022-11-25T09:15:00,axn,24.57
2022-11-25T09:16:00,axn,24.33
2022-11-25T09:17:00,axn,23.98
2022-11-25T09:18:00,axn,23.89
2022-11-25T09:19:00,axn,23.95
2022-11-25T09:20:00,axn,23.82
2022-11-25T09:21:00,axn,23.60
2022-11-25T09:22:00,axn,23.84
2022-11-25T09:23:00,axn,24.04
2022-11-25T09:24:00,axn,23.84
2022-11-25T09:25:00,axn,24.11
2022-11-25T09:26:00,axn,23.77
2022-11-25T09:27:00,axn,24.13
2022-11-25T09:28:00,axn,38.38
2022-11-25T09:29:00,axn,38.15
2022-11-25T09:30:00,axn,37.88
2022-11-25T09:31:00,axn,37.76
2022-11-25T09:32:00,axn,37.82
2022-11-25T09:33:00,axn,24.10
2022-11-25T09:34:00,axn,23.86
2022-11-25T09:35:00,axn,23.91
2022-11-25T09:36:00,axn,23.93
2022-11-25T09:37:00,axn,24.05
2022-11-25T09:38:00,axn,24.16
2022-11-25T09:39:00,axn,24.17
2022-11-25T09:40:00,axn,23.96
2022-11-25T09:41:00,axn,23.92
2022-11-25T09:42:00,axn,23.60
2022-11-25T09:43:00,axn,23.64
2022-11-25T09:44:00,axn,36.76
2022-11-25T09:45:00,axn,36.61
2022-11-25T09:46:00,axn,33.65
2022-11-25T09:47:00,axn,33.54
2022-11-25T09:48:00,axn,23.72
2022-11-25T09:49:00,axn,23.68
2022-11-25T09:50:00,axn,24.01
2022-11-25T09:51:00,axn,23.70
2022-11-25T09:52:00,axn,23.71
2022-11-25T09:53:00,axn,23.63
2022-11-25T09:54:00,axn,23.57
2022-11-25T09:55:00,axn,23.42
2022-11-25T09:56:00,axn,23.27
2022-11-25T09:57:00,axn,23.23
2022-11-25T09:58:00,axn,23.18
2022-11-25T09:59:00,axn,23.29
2022-11-25T10:00:00,axn,23.36
2022-11-25T10:01:00,axn,23.49
2022-11-25T10:02:00,axn,23.68
2022-11-25T10:03:00,axn,23.52
2022-11-25T10:04:00,axn,23.56
2022-11-25T10:05:00,axn,23.55
2022-11-25T10:06:00,axn,23.58
2022-11-25T10:07:00,axn,23.52
2022-11-25T10:08:00,axn,23.63
2022-11-25T10:09:00,axn,23.61
2022-11-25T10:10:00,axn,23.57
2022-11-25T10:11:00,axn,23.80
2022-11-25T10:12:00,axn,23.98
2022-11-25T10:13:00,axn,23.89
2022-11-25T10:14:00,axn,23.91
2022-11-25T10:15:00,axn,23.86
2022-11-25T10:16:00,axn,24.79
2022-11-25T10:17:00,axn,23.94
2022-11-25T10:18:00,axn,23.91
2022-11-25T10:19:00,axn,23.81
2022-11-25T10:20:00,axn,23.74
2022-11-25T10:21:00,axn,23.78
2022-11-25T10:22:00,axn,23.73
2022-11-25T10:23:00,axn,23.68
2022-11-25T10:24:00,axn,23.67
2022-11-25T10:25:00,axn,23.61
2022-11-25T10:26:00,axn,23.61
2022-11-25T10:27:00,axn,23.74
2022-11-25T10:28:00,axn,23.85
2022-11-25T10:29:00,axn,23.71
2022-11-25T10:30:00,axn,26.80
2022-11-25T10:31:00,axn,26.89
2022-11-25T10:32:00,axn,26.98
2022-11-25T10:33:00,axn,24.28
2022-11-25T10:34:00,axn,24.22
2022-11-25T10:35:00,axn,24.15
2022-11-25T10:36:00,axn,24.12
2022-11-25T10:37:00,axn,24.11
2022-11-25T10:38:00,axn,23.95
2022-11-25T10:39:00,axn,23.97
2022-11-25T10:40:00,axn,24.02
2022-11-25T10:41:00,axn,24.07
2022-11-25T10:42:00,axn,23.97
2022-11-25T10:43:00,axn,23.69
2022-11-25T10:44:00,axn,23.77
2022-11-25T10:45:00,axn,23.82
2022-11-25T10:46:00,axn,23.70
2022-11-25T10:47:00,axn,24.44
2022-11-25T10:48:00,axn,24.14
2022-11-25T10:49:00,axn,23.97
2022-11-25T10:50:00,axn,24.02
2022-11-25T10:51:00,axn,24.24
2022-11-25T10:52:00,axn,24.17
2022-11-25T10:53:00,axn,24.34
2022-11-25T10:54:00,axn,24.19
2022-11-25T10:55:00,axn,24.13
2022-11-25T10:56:00,axn,24.05
2022-11-25T10:57:00,axn,24.17
2022-11-25T10:58:00,axn,24.17
2022-11-25T10:59:00,axn,24.11
2022-11-25T11:00:00,axn,24.24
2022-11-25T11:01:00,axn,24.19
2022-11-25T11:02:00,axn,24.37
2022-11-25T11:03:00,axn,27.43
2022-11-25T11:04:00,axn,26.60
2022-11-25T11:05:00,axn,26.51
2022-11-25T11:06:00,axn,26.56
2022-11-25T11:07:00,axn,26.48
2022-11-25T11:08:00,axn,26.48
2022-11-25T11:09:00,axn,26.56
2022-11-25T11:10:00,axn,26.56
2022-11-25T11:11:00,axn,26.75
2022-11-25T11:12:00,axn,26.72
2022-11-25T11:13:00,axn,26.61
2022-11-25T11:14:00,axn,32.42
2022-11-25T11:15:00,axn,32.93
2022-11-25T11:16:00,axn,32.94
2022-11-25T11:17:00,axn,25.56
2022-11-25T11:18:00,axn,25.33
2022-11-25T11:19:00,axn,25.37
2022-11-25T11:20:00,axn,25.15
2022-11-25T11:21:00,axn,25.35
2022-11-25T11:22:00,axn,25.19
2022-11-25T11:23:00,axn,25.26
2022-11-25T11:24:00,axn,25.24
2022-11-25T11:25:00,axn,25.55
2022-11-25T11:26:00,axn,25.16
2022-11-25T11:27:00,axn,24.91
2022-11-25T11:28:00,axn,24.74
2022-11-25T11:29:00,axn,24.89
2022-11-25T11:30:00,axn,25.16
2022-11-25T11:31:00,axn,24.86
2022-11-25T11:32:00,axn,24.71
2022-11-25T11:33:00,axn,24.72
2022-11-25T11:34:00,axn,24.74
2022-11-25T11:35:00,axn,24.69
2022-11-25T11:36:00,axn,24.63
2022-11-25T11:37:00,axn,24.62
2022-11-25T11:38:00,axn,24.78
2022-11-25T11:39:00,axn,24.87
2022-11-25T11:40:00,axn,24.74
2022-11-25T11:41:00,axn,24.78
2022-11-25T11:42:00,axn,25.01
2022-11-25T11:43:00,axn,24.82
2022-11-25T11:44:00,axn,24.76
2022-11-25T11:45:00,axn,24.94
2022-11-25T11:46:00,axn,24.99
2022-11-25T11:47:00,axn,24.96
2022-11-25T11:48:00,axn,25.12
2022-11-25T11:49:00,axn,24.96
2022-11-25T11:50:00,axn,24.79
2022-11-25T11:51:00,axn,25.76
2022-11-25T11:52:00,axn,25.72
2022-11-25T11:53:00,axn,28.81
2022-11-25T11:54:00,axn,31.24
2022-11-25T11:55:00,axn,31.95
2022-11-25T11:56:00,axn,31.81
2022-11-25T11:57:00,axn,31.95
2022-11-25T11:58:00,axn,31.93
2022-11-25T11:59:00,axn,31.64
2022-11-25T12:00:00,axn,31.92
2022-11-25T12:01:00,axn,31.62
2022-11-25T12:02:00,axn,31.65
2022-11-25T12:03:00,axn,31.84
2022-11-25T12:04:00,axn,31.83
2022-11-25T12:05:00,axn,31.70
2022-11-25T12:06:00,axn,31.70
2022-11-25T12:07:00,axn,29.81
2022-11-25T12:08:00,axn,29.93
2022-11-25T12:09:00,axn,30.29
2022-11-25T12:10:00,axn,30.37
2022-11-25T12:11:00,axn,30.16
2022-11-25T12:12:00,axn,30.40
2022-11-25T12:13:00,axn,30.11
2022-11-25T12:14:00,axn,30.15
2022-11-25T12:15:00,axn,29.82
2022-11-25T12:16:00,axn,29.91
2022-11-25T12:17:00,axn,29.79
2022-11-25T12:18:00,axn,30.13
2022-11-25T12:19:00,axn,29.99
2022-11-25T12:20:00,axn,30.10
2022-11-25T12:21:00,axn,30.57
2022-11-25T12:22:00,axn,30.34
2022-11-25T12:23:00,axn,30.17
2022-11-25T12:24:00,axn,30.04
2022-11-25T12:25:00,axn,29.91
2022-11-25T12:26:00,axn,29.80
2022-11-25T12:27:00,axn,29.71
2022-11-25T12:28:00,axn,30.04
2022-11-25T12:29:00,axn,29.70
2022-11-25T12:30:00,axn,29.56
2022-11-25T12:31:00,axn,29.64
2022-11-25T12:32:00,axn,29.63
2022-11-25T12:33:00,axn,29.65
2022-11-25T12:34:00,axn,29.68
2022-11-25T12:35:00,axn,29.48
2022-11-25T12:36:00,axn,29.21
2022-11-25T12:37:00,axn,29.17
2022-11-25T12:38:00,axn,29.11
2022-11-25T12:39:00,axn,29.06
2022-11-25T12:40:00,axn,29.10
2022-11-25T12:41:00,axn,29.16
2022-11-25T12:42:00,axn,29.07
2022-11-25T12:43:00,axn,29.15
2022-11-25T12:44:00,axn,29.00
2022-11-25T12:45:00,axn,29.29
2022-11-25T12:46:00,axn,29.44
2022-11-25T12:47:00,axn,28.98
2022-11-25T12:48:00,axn,28.97
2022-11-25T12:49:00,axn,28.98
2022-11-25T12:50:00,axn,29.16
2022-11-25T12:51:00,axn,29.32
2022-11-25T12:52:00,axn,29.39
2022-11-25T12:53:00,axn,29.55
2022-11-25T12:54:00,axn,29.43
2022-11-25T12:55:00,axn,29.49
2022-11-25T12:56:00,axn,29.35
2022-11-25T12:57:00,axn,29.57
2022-11-25T12:58:00,axn,29.51
2022-11-25T12:59:00,axn,31.04
2022-11-25T13:00:00,axn,30.94
2022-11-25T13:01:00,axn,30.83
2022-11-25T13:02:00,axn,30.97
2022-11-25T13:03:00,axn,31.01
2022-11-25T13:04:00,axn,30.93
2022-11-25T13:05:00,axn,31.00
2022-11-25T13:06:00,axn,33.95
2022-11-25T13:07:00,axn,34.28
2022-11-25T13:08:00,axn,31.42
2022-11-25T13:09:00,axn,29.52
2022-11-25T13:10:00,axn,29.17
2022-11-25T13:11:00,axn,29.02
2022-11-25T13:12:00,axn,28.87
2022-11-25T13:13:00,axn,28.94
2022-11-25T13:14:00,axn,28.99
2022-11-25T13:15:00,axn,29.58
2022-11-25T13:16:00,axn,28.94
2022-11-25T13:17:00,axn,29.02
2022-11-25T13:18:00,axn,29.04